TimeCST,TemperatureF,Dew PointF,Humidity,Sea Level PressureIn,VisibilityMPH,Wind Direction,Wind SpeedMPH,Gust SpeedMPH,PrecipitationIn,Events,Conditions,WindDirDegrees,DateUTC
12:15 AM,21.2,12.2,68,30.52,10.0,North,15.0,-,N/A,,Clear,360,2013-12-07 06:15:00
12:35 AM,21.2,12.2,68,30.53,10.0,NNW,11.5,-,N/A,,Clear,330,2013-12-07 06:35:00
12:55 AM,21.2,12.2,68,30.53,10.0,NW,12.7,-,N/A,,Clear,320,2013-12-07 06:55:00
1:15 AM,21.2,12.2,68,30.53,10.0,North,10.4,18.4,N/A,,Clear,350,2013-12-07 07:15:00
1:35 AM,21.2,12.2,68,30.54,10.0,NNW,9.2,-,N/A,,Clear,340,2013-12-07 07:35:00
1:55 AM,19.4,12.2,74,30.53,10.0,NNW,12.7,17.3,N/A,,Clear,340,2013-12-07 07:55:00
2:15 AM,19.4,12.2,74,30.52,10.0,North,13.8,19.6,N/A,,Clear,350,2013-12-07 08:15:00
2:35 AM,19.4,10.4,68,30.51,10.0,North,12.7,20.7,N/A,,Clear,350,2013-12-07 08:35:00
2:55 AM,19.4,10.4,68,30.52,10.0,NNW,11.5,-,N/A,,Clear,330,2013-12-07 08:55:00
3:15 AM,19.4,10.4,68,30.52,10.0,NNW,10.4,-,N/A,,Clear,340,2013-12-07 09:15:00
3:35 AM,19.4,10.4,68,30.52,10.0,NNW,15.0,19.6,N/A,,Clear,330,2013-12-07 09:35:00
3:55 AM,19.4,10.4,68,30.52,10.0,NW,16.1,-,N/A,,Clear,310,2013-12-07 09:55:00
4:15 AM,17.6,10.4,73,30.52,10.0,North,15.0,19.6,N/A,,Clear,350,2013-12-07 10:15:00
4:35 AM,17.6,10.4,73,30.53,10.0,NNW,13.8,20.7,N/A,,Clear,340,2013-12-07 10:35:00
4:55 AM,17.6,10.4,73,30.52,10.0,North,13.8,-,N/A,,Clear,360,2013-12-07 10:55:00
5:15 AM,17.6,10.4,73,30.52,10.0,North,11.5,-,N/A,,Clear,350,2013-12-07 11:15:00
5:35 AM,17.6,10.4,73,30.52,10.0,North,13.8,19.6,N/A,,Clear,360,2013-12-07 11:35:00
5:55 AM,17.6,10.4,73,30.53,10.0,North,13.8,-,N/A,,Clear,10,2013-12-07 11:55:00
6:15 AM,17.6,10.4,73,30.54,10.0,North,13.8,-,N/A,,Clear,10,2013-12-07 12:15:00
6:35 AM,17.6,10.4,73,30.54,10.0,North,15.0,-,N/A,,Clear,10,2013-12-07 12:35:00
6:55 AM,17.6,10.4,73,30.54,10.0,North,12.7,-,N/A,,Scattered Clouds,10,2013-12-07 12:55:00
7:15 AM,17.6,10.4,73,30.54,10.0,NNE,13.8,-,N/A,,Mostly Cloudy,20,2013-12-07 13:15:00
7:35 AM,17.6,10.4,73,30.54,10.0,North,15.0,-,N/A,,Scattered Clouds,10,2013-12-07 13:35:00
7:55 AM,17.6,10.4,73,30.55,10.0,North,12.7,-,N/A,,Mostly Cloudy,10,2013-12-07 13:55:00
8:15 AM,17.6,10.4,73,30.57,10.0,North,11.5,-,N/A,,Scattered Clouds,10,2013-12-07 14:15:00
8:35 AM,17.6,10.4,73,30.57,10.0,North,11.5,-,N/A,,Clear,350,2013-12-07 14:35:00
8:55 AM,17.6,10.4,73,30.56,10.0,North,13.8,-,N/A,,Clear,360,2013-12-07 14:55:00
9:15 AM,19.4,12.2,74,30.57,10.0,North,12.7,-,N/A,,Clear,360,2013-12-07 15:15:00
9:35 AM,19.4,12.2,74,30.55,10.0,North,15.0,-,N/A,,Mostly Cloudy,350,2013-12-07 15:35:00
9:55 AM,21.2,12.2,68,30.57,10.0,NNE,12.7,-,N/A,,Mostly Cloudy,20,2013-12-07 15:55:00
10:15 AM,21.2,14.0,74,30.57,10.0,NW,10.4,-,0.01,,Overcast,310,2013-12-07 16:15:00
10:35 AM,23.0,14.0,68,30.55,10.0,North,11.5,-,0.01,,Overcast,10,2013-12-07 16:35:00
10:55 AM,23.0,14.0,68,30.54,10.0,NNE,10.4,-,0.02,,Overcast,20,2013-12-07 16:55:00
11:15 AM,23.0,15.8,74,30.53,10.0,NW,10.4,-,0.01,,Overcast,310,2013-12-07 17:15:00
11:35 AM,24.8,17.6,74,30.52,10.0,North,8.1,-,0.02,,Overcast,10,2013-12-07 17:35:00
11:55 AM,24.8,17.6,74,30.50,10.0,NNE,11.5,-,0.03,,Overcast,30,2013-12-07 17:55:00
12:15 PM,26.6,17.6,69,30.49,10.0,North,10.4,-,0.02,,Overcast,360,2013-12-07 18:15:00
12:35 PM,26.6,17.6,69,30.47,10.0,North,8.1,-,0.03,,Overcast,10,2013-12-07 18:35:00
12:55 PM,26.6,19.4,74,30.47,10.0,North,9.2,-,0.04,,Mostly Cloudy,350,2013-12-07 18:55:00
1:15 PM,28.4,19.4,69,30.45,10.0,NNE,10.4,-,N/A,,Mostly Cloudy,30,2013-12-07 19:15:00
1:35 PM,28.4,17.6,64,30.44,10.0,NW,10.4,-,N/A,,Overcast,320,2013-12-07 19:35:00
1:55 PM,26.6,17.6,69,30.42,10.0,NNW,8.1,-,N/A,,Overcast,330,2013-12-07 19:55:00
2:15 PM,26.6,17.6,69,30.42,10.0,NNE,9.2,-,N/A,,Overcast,20,2013-12-07 20:15:00
2:35 PM,26.6,17.6,69,30.42,10.0,NNW,8.1,-,N/A,,Overcast,330,2013-12-07 20:35:00
2:55 PM,26.6,17.6,69,30.40,10.0,NNE,10.4,-,N/A,,Overcast,20,2013-12-07 20:55:00
3:15 PM,26.6,19.4,74,30.40,10.0,NNW,9.2,-,N/A,,Overcast,330,2013-12-07 21:15:00
3:35 PM,26.6,19.4,74,30.39,10.0,North,9.2,-,N/A,,Overcast,360,2013-12-07 21:35:00
3:55 PM,26.6,19.4,74,30.37,10.0,NW,12.7,-,N/A,,Overcast,310,2013-12-07 21:55:00
4:15 PM,26.6,19.4,74,30.38,10.0,North,12.7,-,N/A,,Overcast,10,2013-12-07 22:15:00
4:35 PM,26.6,19.4,74,30.37,10.0,WNW,10.4,-,N/A,,Overcast,300,2013-12-07 22:35:00
4:55 PM,26.6,19.4,74,30.37,10.0,NNW,9.2,-,N/A,,Overcast,330,2013-12-07 22:55:00
5:15 PM,26.6,19.4,74,30.37,10.0,NNW,8.1,-,N/A,,Overcast,340,2013-12-07 23:15:00
5:35 PM,26.6,19.4,74,30.36,10.0,NNE,9.2,-,N/A,,Overcast,20,2013-12-07 23:35:00
5:55 PM,26.6,19.4,74,30.37,10.0,North,12.7,-,N/A,,Overcast,10,2013-12-07 23:55:00
6:15 PM,26.6,19.4,74,30.37,10.0,NNW,10.4,-,N/A,,Overcast,330,2013-12-08 00:15:00
6:35 PM,26.6,19.4,74,30.37,10.0,NW,10.4,-,N/A,,Overcast,310,2013-12-08 00:35:00
6:55 PM,26.6,19.4,74,30.35,10.0,NNE,9.2,-,N/A,,Overcast,30,2013-12-08 00:55:00
7:15 PM,26.6,19.4,74,30.35,10.0,NNE,11.5,-,N/A,,Overcast,30,2013-12-08 01:15:00
7:35 PM,26.6,19.4,74,30.35,10.0,NNE,10.4,-,N/A,,Overcast,20,2013-12-08 01:35:00
7:55 PM,26.6,19.4,74,30.33,10.0,NNE,11.5,-,N/A,,Overcast,30,2013-12-08 01:55:00
8:15 PM,26.6,21.2,80,30.33,10.0,NE,9.2,-,N/A,,Overcast,40,2013-12-08 02:15:00
8:35 PM,26.6,21.2,80,30.31,10.0,ENE,8.1,-,N/A,,Overcast,60,2013-12-08 02:35:00
8:55 PM,28.4,21.2,74,30.32,10.0,NNE,4.6,-,N/A,,Overcast,30,2013-12-08 02:55:00
9:15 PM,28.4,21.2,74,30.32,10.0,NNE,3.5,-,N/A,,Overcast,20,2013-12-08 03:15:00
9:35 PM,28.4,21.2,74,30.31,10.0,NW,5.8,-,N/A,,Overcast,320,2013-12-08 03:35:00
9:55 PM,28.4,21.2,74,30.32,10.0,NNW,3.5,-,N/A,,Overcast,340,2013-12-08 03:55:00
10:15 PM,28.4,21.2,74,30.31,10.0,NNW,4.6,-,N/A,,Overcast,330,2013-12-08 04:15:00
10:35 PM,28.4,21.2,74,30.31,10.0,NNW,4.6,-,N/A,,Overcast,340,2013-12-08 04:35:00
10:55 PM,28.4,21.2,74,30.30,10.0,North,4.6,-,N/A,,Overcast,350,2013-12-08 04:55:00
11:15 PM,28.4,21.2,74,30.30,10.0,NNE,3.5,-,N/A,,Overcast,20,2013-12-08 05:15:00
11:35 PM,28.4,21.2,74,30.28,10.0,Calm,Calm,-,N/A,,Overcast,0,2013-12-08 05:35:00
11:55 PM,28.4,21.2,74,30.26,10.0,Calm,Calm,-,N/A,,Overcast,0,2013-12-08 05:55:00